TimeCDT,TemperatureF,Dew PointF,Humidity,Sea Level PressureIn,VisibilityMPH,Wind Direction,Wind SpeedMPH,Gust SpeedMPH,PrecipitationIn,Events,Conditions,WindDirDegrees,DateUTC
12:53 AM,53.1,32.0,45,29.80,10.0,SW,23.0,31.1,N/A,,Overcast,230,2013-10-26 05:53:00
1:53 AM,51.1,33.1,50,29.78,10.0,SW,19.6,31.1,N/A,,Clear,230,2013-10-26 06:53:00
2:53 AM,50.0,34.0,54,29.78,10.0,West,10.4,-,N/A,,Clear,260,2013-10-26 07:53:00
3:53 AM,50.0,36.0,59,29.78,10.0,West,13.8,-,N/A,,Clear,280,2013-10-26 08:53:00
4:53 AM,48.0,36.0,63,29.80,10.0,WNW,13.8,-,N/A,,Clear,290,2013-10-26 09:53:00
5:53 AM,46.9,35.1,63,29.82,10.0,WNW,12.7,-,N/A,,Clear,290,2013-10-26 10:53:00
6:53 AM,46.0,30.0,54,29.86,10.0,NW,19.6,26.5,N/A,,Partly Cloudy,310,2013-10-26 11:53:00
7:53 AM,45.0,30.0,56,29.89,10.0,NW,15.0,24.2,N/A,,Scattered Clouds,310,2013-10-26 12:53:00
8:53 AM,46.0,32.0,58,29.93,10.0,NW,16.1,21.9,N/A,,Overcast,320,2013-10-26 13:53:00
9:53 AM,46.0,32.0,58,29.95,10.0,WNW,16.1,-,N/A,,Overcast,300,2013-10-26 14:53:00
10:53 AM,46.9,32.0,56,29.98,10.0,NW,18.4,25.3,N/A,,Overcast,320,2013-10-26 15:53:00
11:53 AM,48.9,30.9,50,30.00,10.0,WNW,13.8,-,N/A,,Mostly Cloudy,300,2013-10-26 16:53:00
12:53 PM,50.0,30.0,46,30.01,10.0,WNW,17.3,-,N/A,,Mostly Cloudy,300,2013-10-26 17:53:00
1:53 PM,51.1,28.9,43,30.02,10.0,WNW,16.1,-,N/A,,Mostly Cloudy,300,2013-10-26 18:53:00
2:53 PM,48.9,28.9,46,30.03,10.0,WNW,15.0,21.9,N/A,,Overcast,300,2013-10-26 19:53:00
3:53 PM,48.0,28.0,46,30.05,10.0,NW,12.7,-,N/A,,Mostly Cloudy,310,2013-10-26 20:53:00
4:53 PM,46.9,28.0,48,30.07,10.0,NW,13.8,-,N/A,,Scattered Clouds,310,2013-10-26 21:53:00
5:53 PM,45.0,28.0,52,30.08,10.0,NW,9.2,-,N/A,,Partly Cloudy,310,2013-10-26 22:53:00
6:53 PM,46.0,28.9,51,30.09,10.0,NW,10.4,-,N/A,,Overcast,320,2013-10-26 23:53:00
7:53 PM,44.1,28.9,55,30.10,10.0,NNW,3.5,-,N/A,,Overcast,330,2013-10-27 00:53:00
8:53 PM,44.1,30.0,58,30.09,10.0,Calm,Calm,-,N/A,,Overcast,0,2013-10-27 01:53:00
9:53 PM,43.0,30.9,62,30.09,10.0,SSW,3.5,-,N/A,,Overcast,200,2013-10-27 02:53:00
10:53 PM,41.0,30.9,67,30.09,10.0,SSE,4.6,-,N/A,,Overcast,150,2013-10-27 03:53:00
11:53 PM,39.0,30.0,70,30.08,10.0,South,3.5,-,N/A,,Overcast,190,2013-10-27 04:53:00